Lid_Strength_Index
1 -1 -1 -1 -1 -1 -1 -1 -1 -1 -1 -1 -1 -1 -1 -1 -1 -1 -1 -1 -1 -1 -1 -1 -2 -2 -2 -2 -2 -2 -2 -2 -2 -2 -2 -2 -2 -2 -2 -2 -2 -1 -2
-0 -1 -1 -1 -1 -1 -1 -1 -1 -1 -1 -1 -1 -1 -1 -1 -1 -1 -1 -2 -2 -1 -2 -2 -2 -2 -2 -2 -2 -2 -2 -2 -2 -2 -1 -1 -2 -2 -2 -2 -2 -1 -2
-0 -1 -1 -1 -1 -1 -1 -1 -1 -1 -1 -1 -1 -1 -1 -1 -1 -1 -1 -1 -2 -2 -1 -2 -2 -2 -2 -2 -2 -2 -2 -1 -2 -1 -1 -1 -1 -2 -2 -2 -2 -2 -2
-0 -1 -1 -0 -1 -1 -1 -1 -1 -1 -1 -1 -1 -1 -1 -1 -1 -1 -1 -1 -2 -2 -1 -2 -2 -2 -2 -2 -2 -2 -1 -1 -2 -1 -1 -1 -1 -2 -2 -2 -2 -2 -2
-0 -1 -1 -0 -1 -1 -1 -1 -1 -1 -1 -2 -2 -2 -2 -1 -1 -1 -1 -2 -2 -2 -2 -2 -2 -2 -2 -2 -2 -1 -1 -1 -1 -1 -1 -1 -1 -1 -2 -2 -2 -1 -2
-0 -1 -0 -1 -1 -1 -1 -1 -1 -1 -2 -2 -2 -2 -2 -2 -2 -2 -2 -2 -2 -1 -2 -2 -2 -2 -2 -2 -1 -1 -1 -1 -1 -1 -1 -1 -1 -2 -2 -2 -1 -1 -2
-0 -1 -1 -1 -1 -1 -1 -1 -1 -1 -1 -2 -2 -2 -2 -2 -2 -2 -2 -2 -2 -2 -2 -2 -2 -2 -2 -2 -1 -1 -1 -1 -1 -1 -0 -1 -1 -2 -2 -2 -2 -2 -2
0 -0 -1 1 0 -0 -1 -1 -1 -1 -1 -1 -2 -2 -2 -2 -2 -2 -2 -2 -1 -2 -2 -2 -3 -2 -2 -2 -1 -1 -1 -0 -0 -1 -0 -1 -2 -2 -2 -2 -2 -2 -2
-0 -0 -1 -1 -0 1 0 0 -0 -1 -1 -1 -1 -1 -1 -2 -2 -2 -2 -2 -2 -2 -2 -2 -2 -2 -2 -2 -2 -1 -0 0 -1 -1 -0 -1 -2 -2 -2 -2 -2 -2 -1
0 -0 -0 -0 -1 -1 -1 1 1 0 -0 -0 -1 -0 -0 -0 -1 -1 -1 -2 -2 -2 -2 -2 -2 -2 -2 -1 -1 -0 1 1 -1 -0 -0 -1 -2 -2 -2 -2 -2 -2 -1
0 0 -0 -0 -0 -1 -1 0 2 1 1 1 0 1 1 -1 -0 -0 -0 -1 -2 -2 -2 -2 -2 -2 -1 -0 -0 0 1 -1 -1 -1 -1 -1 -2 -2 -2 -2 -2 -2 -0
5 4 1 -0 -0 -0 -0 -1 -1 -1 -1 -1 -1 -1 -1 -1 -1 -0 1 0 -1 -1 -1 -2 -2 -2 -0 -1 -1 0 -1 -1 -1 -1 -1 -1 -2 -2 -2 -2 -2 -2 -1
6 5 5 4 2 -0 -0 -1 -1 -1 -1 -1 -1 -1 -1 -1 -1 -1 -1 -0 -1 1 -1 -1 -1 -1 -1 -1 -1 -1 -1 -1 -1 -1 -0 -1 -2 -2 -2 -2 -2 -1 -1
7 6 5 5 4 4 3 1 -0 -0 -1 -1 -1 -1 -0 -0 -0 -0 -0 -1 -1 -0 -0 -1 -1 -1 -1 -1 -1 -1 -1 -1 -1 -1 -0 0 -1 -2 -2 -2 -2 -1 -1
7 7 6 5 5 5 4 3 2 0 -0 -1 -1 -1 -0 -0 0 0 0 -0 -0 -0 0 0 -0 -0 -0 -0 -1 -1 -0 -0 -1 -1 -1 1 -1 -2 -2 -2 -2 -1 -1
7 7 6 6 5 5 5 4 4 2 1 -1 -1 -1 -1 -0 0 0 0 0 1 0 0 0 -0 -0 -0 -0 -0 -0 -0 -0 -0 -0 -1 -0 0 -1 -2 -2 -2 -1 -1
7 7 6 6 6 5 5 4 4 3 3 2 1 -1 -1 -1 -0 1 0 0 0 1 -1 1 0 0 0 0 0 -0 -0 0 -0 -0 -1 -1 0 0 -1 -2 -2 -1 -1
7 7 6 6 6 6 5 4 4 4 3 2 1 0 -1 -1 -1 -0 0 1 1 -0 0 0 1 1 1 1 1 0 0 1 1 -0 -0 -0 -0 -0 0 -1 0 0 -0
7 7 7 6 6 5 4 4 4 3 3 2 2 1 -0 -1 -1 -0 -0 -0 -0 0 0 1 1 1 1 1 1 1 0 1 1 1 2 1 1 0 1 0 2 2 1
7 7 6 6 6 5 5 4 4 3 3 2 2 1 0 -0 -1 -0 -0 -0 -0 0 1 1 1 1 1 1 2 2 2 1 0 1 2 2 2 2 1 1 2 3 3
7 7 6 6 5 5 5 4 4 3 2 2 1 1 1 1 0 -0 -0 0 -0 1 1 1 1 2 2 2 3 9 8 9 4 1 1 2 2 2 3 3 3 3 4
8 8 7 7 6 5 5 4 4 4 4 3 3 2 1 1 0 0 -0 0 0 1 1 1 1 2 2 2 5 4 9 9 9 10 5 3 3 3 4 4 4 4 4
8 8 8 8 7 6 6 5 5 5 5 5 4 4 3 3 2 2 1 0 0 0 1 1 1 2 3 3 2 5 10 7 11 11 11 7 3 4 3 3 4 4 4
8 8 8 8 7 7 7 6 6 6 7 6 5 5 4 3 3 3 2 2 1 0 1 1 1 1 2 3 3 2 3 8 7 13 12 12 9 5 4 4 4 5 5
8 7 7 7 7 7 7 6 6 7 7 6 6 6 5 5 4 4 4 3 3 2 0 1 1 1 1 2 4 3 5 7 6 10 9 13 13 10 5 5 4 5 5
7 7 7 8 8 7 7 6 6 7 7 7 7 7 6 6 6 5 5 4 4 3 2 1 1 1 1 1 2 4 5 7 7 6 6 10 10 12 11 8 6 6 5